Regional Weather Roundup
Issued by NWS

Home | Current Version | Previous Version | Text Only | Print | Product List | Glossary On
Versions: 1 2 3 4 5 6 7 8 9 10 11 12 13 14 15 16 17 18 19 20 21 22 23 24 25 26 27 28 29 30 31 32 33 34 35 36 37 38 39 40 41 42 43 44 45 46 47 48 49 50
000
ASUS44 KMEG 231910
RWRTN
TENNESSEE HOURLY STATE WEATHER ROUNDUP
NATIONAL WEATHER SERVICE MEMPHIS TN
200 PM CDT SAT AUG 23 2014

TNZ002-004-019-021-049-052-054-088>092-232000-
WEST TENNESSEE

CITY           SKY/WX    TMP DP  RH WIND       PRES   REMARKS
MEMPHIS INTL   MOSUNNY   96  74  48 SW7       29.98F HX 107
NWS MEMPHIS      N/A     96 N/A N/A MISG        N/A
JACKSON        SUNNY     93  75  55 W6        29.98F HX 104
DYERSBURG      SUNNY     93  72  49 NW3       29.97F HX 100
UNION CITY     SUNNY     91  79  66 VRB3      29.96F HX 107
PARIS          MOSUNNY   93  75  55 VRB6      29.98F HX 104
HUNTINGDON     MOSUNNY   92  76  59 VRB5      29.97F HX 104
LEXINGTON      MOSUNNY   95  72  46 VRB5      29.98F HX 103
SAVANNAH       SUNNY     93  75  55 W5        30.00F HX 104
$$

TNZ008-025-027-028-033-062-065-066-232000-
NORTH MIDDLE TENNESSEE

CITY           SKY/WX    TMP DP  RH WIND       PRES   REMARKS
NASHVILLE      MOSUNNY   92  74  55 W6        29.99F HX 101
DICKSON        MOSUNNY   88  77  70 SW7       30.01F HX 100
CLARKSVILLE    MOSUNNY   93  76  57 NW12      29.96F HX 105
LEBANON        MOSUNNY   91  72  53 NW6       29.98F HX  98
SMYRNA         MOSUNNY   93  74  54 N8        29.99F HX 102
MURFREESBORO   MOSUNNY   93  72  50 N6        29.98F HX 100
COOKEVILLE     MOSUNNY   91  75  59 N6        30.02F HX 102
GALLATIN       MOSUNNY   91  75  59 SW3       30.00F HX 101
CROSSVILLE     MOSUNNY   86  70  58 NW8       30.07F HX  90
$$

TNZ061-075-076-078-094-096-097-232000-
SOUTH MIDDLE TENNESSEE

CITY           SKY/WX    TMP DP  RH WIND       PRES   REMARKS
LEWISBURG      MOSUNNY   92  72  51 W6        30.00F HX  99
FAYETTEVILLE   SUNNY     90  70  51 NW7       30.01F HX  95
TULLAHOMA      PTSUNNY   86  73  66 VRB7      30.04S HX  93
WINCHESTER     MOSUNNY   90  73  58 N7        30.02F HX  98
MCMINNVILLE    MOSUNNY   88  75  66 CALM      30.03S HX  97
COLUMBIA       SUNNY     93  75  55 CALM      29.99F HX 104
SHELBYVILLE    SUNNY     91  75  59 W8        30.01F HX 102
$$

TNZ017-018-042-046-047-232000-
NORTHEAST TENNESSEE

CITY           SKY/WX    TMP DP  RH WIND       PRES   REMARKS
TRI CITIES     MOSUNNY   86  70  58 N9        30.03F HX  90
ELIZABETHTON   PTCLDY    84  72  65 W7        30.02F
$$

TNZ012-013-036-069-073-074-232000-
CENTRAL EAST TENNESSEE

CITY           SKY/WX    TMP DP  RH WIND       PRES   REMARKS
KNOXVILLE      PTSUNNY   90  71  53 NW8       29.99F HX  96
OAK RIDGE      MOSUNNY   87  74  64 S6        30.01F HX  95
GATLINBURG     MOCLDY    90  66  45 NW3       29.99F HX  92
MORRISTOWN     CLEAR     88  72  58 N5        30.02F HX  94
$$

TNZ083-085-099-232000-
SOUTHEAST TENNESSEE

CITY           SKY/WX    TMP DP  RH WIND       PRES   REMARKS
CHATTANOOGA    PTSUNNY   80  71  74 N13       30.01S THUNDER
$$

SKY/WX REPORTED AS FAIR MEANS FEW OR NO CLOUDS BELOW
12 THOUSAND FEET.




USA.gov is the U.S. government's official web portal to all federal, state and local government web resources and services.